Weather in Panino

Russia / Voronezh Oblast     51°38′46″N   40°08′06″E
temp.,
°C
wind,
m/s
gust,
m/s
humid.,
%
clouds,
%
prec.,
mm/h
press.,
hPa
HPBL,
m
28 september, tue
tue2800:00+9n4888100 0.2 1019383
03:00+8n479294 0.3 1020411
06:00+7ne4889100 0.1 1021454
09:00+7ne6878100 0.1 1023712
12:00+7ne5785100 0.1 1025907
15:00+6ne5686100 0.2 1026862
18:00+6ne5878100 0.0 1028840
21:00+6ne4876100 0.0 1029641
29 september, wed
wed2900:00+6ne477811 0.0 1030501
03:00+3nne36855 0.0 1031111
06:00+2nne36875 0.0 1032122
09:00+6ne47628 0.0 1033452
12:00+10ne56455 0.0 10321294
15:00+11nne563822 0.0 10311457
18:00+8nne34505 0.0 103257
21:00+5ne33615 0.0 103341
30 september, thu
thu3000:00+4ne226582 0.0 103318
03:00+4nne226810 0.0 103416
06:00+3nne22725 0.0 103422
09:00+8ne23555 0.0 1035312
12:00+11ne33435 0.0 10341287
15:00+13nne33415 0.0 10331562
18:00+9nne23535 0.0 103421
21:00+7ne22625 0.0 103518
1 october, fri
fri100:00+6ene22685 0.0 103510
03:00+5ne11715 0.0 103610
06:00+5nne12735 0.0 103610
09:00+9nne12565 0.0 1036246
12:00+13nne224613 0.0 10361233
15:00+14nne224753 0.0 10341461
18:00+11ne22615 0.0 103410
21:00+9ne11695 0.0 103510
2 october, sat
sat200:00+8ne11745 0.0 103510
03:00+7nne01795 0.0 103510
06:00+7n11835 0.0 103510
09:00+11nne116330 0.0 1035224
12:00+14e225594 0.0 1034742
15:00+14ese225494 0.0 1034618
18:00+12ese236397 0.0 103458
21:00+11se2368100 0.0 103469